Time,TemperatureF,DewpointF,PressureIn,WindDirection,WindDirectionDegrees,WindSpeedMPH,WindSpeedGustMPH,Humidity,HourlyPrecipIn,Conditions,Clouds,dailyrainin,SoftwareType,DateUTC
2013-02-06 00:02:00,14.0,-99.9,-100.00,NW,326,5.0,11.0,-999,-99.99,,,-99.99,,2013-02-06 05:02:00,
2013-02-06 00:12:00,14.0,-99.9,-100.00,NW,326,5.0,11.0,-999,-99.99,,,-99.99,,2013-02-06 05:12:00,
2013-02-06 00:22:00,14.0,-99.9,-100.00,NW,326,5.0,11.0,-999,-99.99,,,-99.99,,2013-02-06 05:22:00,
2013-02-06 00:32:00,14.0,-99.9,-100.00,NW,326,5.0,11.0,-999,-99.99,,,-99.99,,2013-02-06 05:32:00,
2013-02-06 00:40:00,11.0,-99.9,-100.00,West,265,3.0,5.0,-999,-99.99,,,-99.99,,2013-02-06 05:40:00,
2013-02-06 01:02:00,11.0,-99.9,-100.00,West,265,3.0,5.0,-999,-99.99,,,-99.99,,2013-02-06 06:02:00,
2013-02-06 01:11:00,11.0,-99.9,-100.00,West,265,3.0,5.0,-999,-99.99,,,-99.99,,2013-02-06 06:11:00,
2013-02-06 01:22:00,11.0,-99.9,-100.00,West,265,3.0,5.0,-999,-99.99,,,-99.99,,2013-02-06 06:22:00,
2013-02-06 01:32:00,11.0,-99.9,-100.00,West,265,3.0,5.0,-999,-99.99,,,-99.99,,2013-02-06 06:32:00,
2013-02-06 01:40:00,9.0,-99.9,-100.00,West,280,3.0,6.0,-999,-99.99,,,-99.99,,2013-02-06 06:40:00,
2013-02-06 02:02:00,9.0,-99.9,-100.00,West,280,3.0,6.0,-999,-99.99,,,-99.99,,2013-02-06 07:02:00,
2013-02-06 02:11:00,9.0,-99.9,-100.00,West,280,3.0,6.0,-999,-99.99,,,-99.99,,2013-02-06 07:11:00,
2013-02-06 02:22:00,9.0,-99.9,-100.00,West,280,3.0,6.0,-999,-99.99,,,-99.99,,2013-02-06 07:22:00,
2013-02-06 02:32:00,9.0,-99.9,-100.00,West,280,3.0,6.0,-999,-99.99,,,-99.99,,2013-02-06 07:32:00,
2013-02-06 02:40:00,8.0,-99.9,-100.00,WSW,258,4.0,6.0,-999,-99.99,,,-99.99,,2013-02-06 07:40:00,
2013-02-06 03:01:00,8.0,-99.9,-100.00,WSW,258,4.0,6.0,-999,-99.99,,,-99.99,,2013-02-06 08:01:00,
2013-02-06 03:11:00,8.0,-99.9,-100.00,WSW,258,4.0,6.0,-999,-99.99,,,-99.99,,2013-02-06 08:11:00,
2013-02-06 03:22:00,8.0,-99.9,-100.00,WSW,258,4.0,6.0,-999,-99.99,,,-99.99,,2013-02-06 08:22:00,
2013-02-06 03:32:00,8.0,-99.9,-100.00,WSW,258,4.0,6.0,-999,-99.99,,,-99.99,,2013-02-06 08:32:00,
2013-02-06 03:40:00,7.0,-99.9,-100.00,West,267,4.0,6.0,-999,-99.99,,,-99.99,,2013-02-06 08:40:00,
2013-02-06 04:02:00,7.0,-99.9,-100.00,West,267,4.0,6.0,-999,-99.99,,,-99.99,,2013-02-06 09:02:00,
2013-02-06 04:11:00,7.0,-99.9,-100.00,West,267,4.0,6.0,-999,-99.99,,,-99.99,,2013-02-06 09:11:00,
2013-02-06 04:22:00,7.0,-99.9,-100.00,West,267,4.0,6.0,-999,-99.99,,,-99.99,,2013-02-06 09:22:00,
2013-02-06 04:32:00,7.0,-99.9,-100.00,West,267,4.0,6.0,-999,-99.99,,,-99.99,,2013-02-06 09:32:00,
2013-02-06 04:40:00,4.0,-99.9,-100.00,WSW,246,3.0,5.0,-999,-99.99,,,-99.99,,2013-02-06 09:40:00,
2013-02-06 05:01:00,4.0,-99.9,-100.00,WSW,246,3.0,5.0,-999,-99.99,,,-99.99,,2013-02-06 10:01:00,
2013-02-06 05:11:00,4.0,-99.9,-100.00,WSW,246,3.0,5.0,-999,-99.99,,,-99.99,,2013-02-06 10:11:00,
2013-02-06 05:22:00,4.0,-99.9,-100.00,WSW,246,3.0,5.0,-999,-99.99,,,-99.99,,2013-02-06 10:22:00,
2013-02-06 05:32:00,4.0,-99.9,-100.00,WSW,246,3.0,5.0,-999,-99.99,,,-99.99,,2013-02-06 10:32:00,
2013-02-06 05:40:00,4.0,-99.9,-100.00,WSW,255,1.0,4.0,-999,-99.99,,,-99.99,,2013-02-06 10:40:00,
2013-02-06 06:02:00,4.0,-99.9,-100.00,WSW,255,1.0,4.0,-999,-99.99,,,-99.99,,2013-02-06 11:02:00,
2013-02-06 06:11:00,4.0,-99.9,-100.00,WSW,255,1.0,4.0,-999,-99.99,,,-99.99,,2013-02-06 11:11:00,
2013-02-06 06:22:00,4.0,-99.9,-100.00,WSW,255,1.0,4.0,-999,-99.99,,,-99.99,,2013-02-06 11:22:00,
2013-02-06 06:33:00,4.0,-99.9,-100.00,WSW,255,1.0,4.0,-999,-99.99,,,-99.99,,2013-02-06 11:33:00,
2013-02-06 06:40:00,4.0,-99.9,-100.00,WSW,243,0.0,3.0,-999,-99.99,,,-99.99,,2013-02-06 11:40:00,
2013-02-06 07:02:00,4.0,-99.9,-100.00,WSW,243,0.0,3.0,-999,-99.99,,,-99.99,,2013-02-06 12:02:00,
2013-02-06 07:12:00,4.0,-99.9,-100.00,WSW,243,0.0,3.0,-999,-99.99,,,-99.99,,2013-02-06 12:12:00,
2013-02-06 07:22:00,4.0,-99.9,-100.00,WSW,243,0.0,3.0,-999,-99.99,,,-99.99,,2013-02-06 12:22:00,
2013-02-06 07:32:00,4.0,-99.9,-100.00,WSW,243,0.0,3.0,-999,-99.99,,,-99.99,,2013-02-06 12:32:00,
2013-02-06 07:40:00,6.0,-99.9,-100.00,SW,232,1.0,4.0,-999,-99.99,,,-99.99,,2013-02-06 12:40:00,
2013-02-06 08:02:00,6.0,-99.9,-100.00,SW,232,1.0,4.0,-999,-99.99,,,-99.99,,2013-02-06 13:02:00,
2013-02-06 08:12:00,6.0,-99.9,-100.00,SW,232,1.0,4.0,-999,-99.99,,,-99.99,,2013-02-06 13:12:00,
2013-02-06 08:22:00,6.0,-99.9,-100.00,SW,232,1.0,4.0,-999,-99.99,,,-99.99,,2013-02-06 13:22:00,
2013-02-06 08:32:00,6.0,-99.9,-100.00,SW,232,1.0,4.0,-999,-99.99,,,-99.99,,2013-02-06 13:32:00,
2013-02-06 08:40:00,9.0,-99.9,-100.00,WSW,238,1.0,5.0,-999,-99.99,,,-99.99,,2013-02-06 13:40:00,
2013-02-06 09:02:00,9.0,-99.9,-100.00,WSW,238,1.0,5.0,-999,-99.99,,,-99.99,,2013-02-06 14:02:00,
2013-02-06 09:11:00,9.0,-99.9,-100.00,WSW,238,1.0,5.0,-999,-99.99,,,-99.99,,2013-02-06 14:11:00,
2013-02-06 09:22:00,9.0,-99.9,-100.00,WSW,238,1.0,5.0,-999,-99.99,,,-99.99,,2013-02-06 14:22:00,
2013-02-06 09:32:00,9.0,-99.9,-100.00,WSW,238,1.0,5.0,-999,-99.99,,,-99.99,,2013-02-06 14:32:00,
2013-02-06 09:40:00,12.0,-99.9,-100.00,North,-999,0.0,0.0,-999,-99.99,,,-99.99,,2013-02-06 14:40:00,
2013-02-06 10:32:00,12.0,-99.9,-100.00,North,-999,0.0,0.0,-999,-99.99,,,-99.99,,2013-02-06 15:32:00,
2013-02-06 10:40:00,14.0,-99.9,-100.00,North,-999,0.0,0.0,-999,-99.99,,,-99.99,,2013-02-06 15:40:00,
2013-02-06 11:02:00,14.0,-99.9,-100.00,North,-999,0.0,0.0,-999,-99.99,,,-99.99,,2013-02-06 16:02:00,
2013-02-06 11:11:00,14.0,-99.9,-100.00,North,-999,0.0,0.0,-999,-99.99,,,-99.99,,2013-02-06 16:11:00,
2013-02-06 11:22:00,14.0,-99.9,-100.00,North,-999,0.0,0.0,-999,-99.99,,,-99.99,,2013-02-06 16:22:00,
2013-02-06 11:32:00,14.0,-99.9,-100.00,North,-999,0.0,0.0,-999,-99.99,,,-99.99,,2013-02-06 16:32:00,
2013-02-06 11:40:00,16.0,-99.9,-100.00,SSW,195,3.0,7.0,-999,-99.99,,,-99.99,,2013-02-06 16:40:00,
2013-02-06 12:02:00,16.0,-99.9,-100.00,SSW,195,3.0,7.0,-999,-99.99,,,-99.99,,2013-02-06 17:02:00,
2013-02-06 12:12:00,16.0,-99.9,-100.00,SSW,195,3.0,7.0,-999,-99.99,,,-99.99,,2013-02-06 17:12:00,
2013-02-06 12:22:00,16.0,-99.9,-100.00,SSW,195,3.0,7.0,-999,-99.99,,,-99.99,,2013-02-06 17:22:00,
2013-02-06 12:33:00,16.0,-99.9,-100.00,SSW,195,3.0,7.0,-999,-99.99,,,-99.99,,2013-02-06 17:33:00,
2013-02-06 12:40:00,18.0,-99.9,-100.00,North,-999,0.0,0.0,-999,-99.99,,,-99.99,,2013-02-06 17:40:00,
2013-02-06 13:02:00,18.0,-99.9,-100.00,North,-999,0.0,0.0,-999,-99.99,,,-99.99,,2013-02-06 18:02:00,
2013-02-06 13:12:00,18.0,-99.9,-100.00,North,-999,0.0,0.0,-999,-99.99,,,-99.99,,2013-02-06 18:12:00,
2013-02-06 13:23:00,18.0,-99.9,-100.00,North,-999,0.0,0.0,-999,-99.99,,,-99.99,,2013-02-06 18:23:00,
2013-02-06 13:33:00,18.0,-99.9,-100.00,North,-999,0.0,0.0,-999,-99.99,,,-99.99,,2013-02-06 18:33:00,
2013-02-06 13:40:00,20.0,-99.9,-100.00,North,-999,0.0,0.0,-999,-99.99,,,-99.99,,2013-02-06 18:40:00,
2013-02-06 14:02:00,20.0,-99.9,-100.00,North,-999,0.0,0.0,-999,-99.99,,,-99.99,,2013-02-06 19:02:00,
2013-02-06 14:22:00,20.0,-99.9,-100.00,North,-999,0.0,0.0,-999,-99.99,,,-99.99,,2013-02-06 19:22:00,
2013-02-06 14:32:00,20.0,-99.9,-100.00,North,-999,0.0,0.0,-999,-99.99,,,-99.99,,2013-02-06 19:32:00,
2013-02-06 14:40:00,20.0,-99.9,-100.00,North,-999,0.0,0.0,-999,-99.99,,,-99.99,,2013-02-06 19:40:00,
2013-02-06 15:12:00,20.0,-99.9,-100.00,North,-999,0.0,0.0,-999,-99.99,,,-99.99,,2013-02-06 20:12:00,
2013-02-06 15:22:00,20.0,-99.9,-100.00,North,-999,0.0,0.0,-999,-99.99,,,-99.99,,2013-02-06 20:22:00,
2013-02-06 15:32:00,20.0,-99.9,-100.00,North,-999,0.0,0.0,-999,-99.99,,,-99.99,,2013-02-06 20:32:00,
2013-02-06 15:40:00,20.0,-99.9,-100.00,North,-999,0.0,2.0,-999,-99.99,,,-99.99,,2013-02-06 20:40:00,
2013-02-06 16:02:00,20.0,-99.9,-100.00,North,-999,0.0,2.0,-999,-99.99,,,-99.99,,2013-02-06 21:02:00,
2013-02-06 16:11:00,20.0,-99.9,-100.00,North,-999,0.0,2.0,-999,-99.99,,,-99.99,,2013-02-06 21:11:00,
2013-02-06 16:22:00,20.0,-99.9,-100.00,North,-999,0.0,2.0,-999,-99.99,,,-99.99,,2013-02-06 21:22:00,
2013-02-06 16:32:00,20.0,-99.9,-100.00,North,-999,0.0,2.0,-999,-99.99,,,-99.99,,2013-02-06 21:32:00,
2013-02-06 16:40:00,20.0,-99.9,-100.00,SE,130,1.0,4.0,-999,-99.99,,,-99.99,,2013-02-06 21:40:00,
2013-02-06 17:01:00,20.0,-99.9,-100.00,SE,130,1.0,4.0,-999,-99.99,,,-99.99,,2013-02-06 22:01:00,
2013-02-06 17:11:00,20.0,-99.9,-100.00,SE,130,1.0,4.0,-999,-99.99,,,-99.99,,2013-02-06 22:11:00,
2013-02-06 17:22:00,20.0,-99.9,-100.00,SE,130,1.0,4.0,-999,-99.99,,,-99.99,,2013-02-06 22:22:00,
2013-02-06 17:32:00,20.0,-99.9,-100.00,SE,130,1.0,4.0,-999,-99.99,,,-99.99,,2013-02-06 22:32:00,
2013-02-06 17:40:00,20.0,-99.9,-100.00,SE,125,0.0,2.0,-999,-99.99,,,-99.99,,2013-02-06 22:40:00,
2013-02-06 18:01:00,20.0,-99.9,-100.00,SE,125,0.0,2.0,-999,-99.99,,,-99.99,,2013-02-06 23:01:00,
2013-02-06 18:11:00,20.0,-99.9,-100.00,SE,125,0.0,2.0,-999,-99.99,,,-99.99,,2013-02-06 23:11:00,
2013-02-06 18:21:00,20.0,-99.9,-100.00,SE,125,0.0,2.0,-999,-99.99,,,-99.99,,2013-02-06 23:21:00,
2013-02-06 18:32:00,20.0,-99.9,-100.00,SE,125,0.0,2.0,-999,-99.99,,,-99.99,,2013-02-06 23:32:00,
2013-02-06 18:40:00,18.0,-99.9,-100.00,North,-999,0.0,3.0,-999,-99.99,,,-99.99,,2013-02-06 23:40:00,
2013-02-06 19:02:00,18.0,-99.9,-100.00,North,-999,0.0,3.0,-999,-99.99,,,-99.99,,2013-02-07 00:02:00,
2013-02-06 19:12:00,18.0,-99.9,-100.00,North,-999,0.0,3.0,-999,-99.99,,,-99.99,,2013-02-07 00:12:00,
2013-02-06 19:22:00,18.0,-99.9,-100.00,North,-999,0.0,3.0,-999,-99.99,,,-99.99,,2013-02-07 00:22:00,
2013-02-06 19:32:00,18.0,-99.9,-100.00,North,-999,0.0,3.0,-999,-99.99,,,-99.99,,2013-02-07 00:32:00,
2013-02-06 19:40:00,18.0,-99.9,-100.00,North,-999,0.0,1.0,-999,-99.99,,,-99.99,,2013-02-07 00:40:00,
2013-02-06 20:02:00,18.0,-99.9,-100.00,North,-999,0.0,1.0,-999,-99.99,,,-99.99,,2013-02-07 01:02:00,
2013-02-06 20:11:00,18.0,-99.9,-100.00,North,-999,0.0,1.0,-999,-99.99,,,-99.99,,2013-02-07 01:11:00,
2013-02-06 20:22:00,18.0,-99.9,-100.00,North,-999,0.0,1.0,-999,-99.99,,,-99.99,,2013-02-07 01:22:00,
2013-02-06 20:32:00,18.0,-99.9,-100.00,North,-999,0.0,1.0,-999,-99.99,,,-99.99,,2013-02-07 01:32:00,
2013-02-06 20:40:00,17.0,-99.9,-100.00,North,-999,0.0,0.0,-999,-99.99,,,-99.99,,2013-02-07 01:40:00,
2013-02-06 21:02:00,17.0,-99.9,-100.00,North,-999,0.0,0.0,-999,-99.99,,,-99.99,,2013-02-07 02:02:00,
2013-02-06 21:12:00,17.0,-99.9,-100.00,North,-999,0.0,0.0,-999,-99.99,,,-99.99,,2013-02-07 02:12:00,
2013-02-06 21:22:00,17.0,-99.9,-100.00,North,-999,0.0,0.0,-999,-99.99,,,-99.99,,2013-02-07 02:22:00,
2013-02-06 21:32:00,17.0,-99.9,-100.00,North,-999,0.0,0.0,-999,-99.99,,,-99.99,,2013-02-07 02:32:00,
2013-02-06 21:40:00,18.0,-99.9,-100.00,North,-999,0.0,3.0,-999,-99.99,,,-99.99,,2013-02-07 02:40:00,
2013-02-06 22:02:00,18.0,-99.9,-100.00,North,-999,0.0,3.0,-999,-99.99,,,-99.99,,2013-02-07 03:02:00,
2013-02-06 22:11:00,18.0,-99.9,-100.00,North,-999,0.0,3.0,-999,-99.99,,,-99.99,,2013-02-07 03:11:00,
2013-02-06 22:22:00,18.0,-99.9,-100.00,North,-999,0.0,3.0,-999,-99.99,,,-99.99,,2013-02-07 03:22:00,
2013-02-06 22:32:00,18.0,-99.9,-100.00,North,-999,0.0,3.0,-999,-99.99,,,-99.99,,2013-02-07 03:32:00,
2013-02-06 22:40:00,18.0,-99.9,-100.00,North,-999,0.0,0.0,-999,-99.99,,,-99.99,,2013-02-07 03:40:00,
2013-02-06 23:02:00,18.0,-99.9,-100.00,North,-999,0.0,0.0,-999,-99.99,,,-99.99,,2013-02-07 04:02:00,
2013-02-06 23:11:00,18.0,-99.9,-100.00,North,-999,0.0,0.0,-999,-99.99,,,-99.99,,2013-02-07 04:11:00,
2013-02-06 23:22:00,18.0,-99.9,-100.00,North,-999,0.0,0.0,-999,-99.99,,,-99.99,,2013-02-07 04:22:00,
2013-02-06 23:32:00,18.0,-99.9,-100.00,North,-999,0.0,0.0,-999,-99.99,,,-99.99,,2013-02-07 04:32:00,
2013-02-06 23:40:00,18.0,-99.9,-100.00,North,-999,0.0,0.0,-999,-99.99,,,-99.99,,2013-02-07 04:40:00,